Regional Weather Roundup
Issued by NWS

Home | Current Version | Previous Version | Graphics & Text | Print | Product List | Glossary On
Versions: 1 2 3 4 5 6 7 8 9 10 11 12 13 14 15 16 17 18 19 20 21 22 23 24 25 26 27 28 29 30 31 32 33 34 35 36 37 38 39 40 41 42 43 44 45 46 47 48 49 50
000
ASUS43 KLSX 300207
RWRMO

WEATHER SUMMARY FOR MISSOURI
NATIONAL WEATHER SERVICE SPRINGFIELD MO
900 PM CDT MON SEP 29 2014

NOTE: "FAIR" INDICATES FEW OR NO CLOUDS BELOW 12,000 FEET WITH NO
       SIGNIFICANT WEATHER AND/OR OBSTRUCTIONS TO VISIBILITY.
       CURRENT SKY AND/OR WEATHER CONDITIONS ARE NOT AVAILABLE FOR
       CHILLICOTHE AND FARMINGTON.

MOZ001>031-035>038-043-044-053-054-300300-
...NORTHERN AND WESTERN MISSOURI...

CITY           SKY/WX    TMP DP  RH WIND       PRES   REMARKS
KANSAS CTY INT CLEAR     74  58  57 E7        29.96S
KANSAS C DTWN  CLEAR     72  60  66 E5        29.95R
LEE`S SUMMIT   CLEAR     73  59  61 SE5       29.97R
ST JOSEPH      CLEAR     64  58  80 CALM      29.95S
CHILLICOTHE      N/A     64  61  90 CALM      29.98R
KIRKSVILLE     CLEAR     62  59  90 CALM      29.98S

$$
MOZ066>068-077>081-088>096-101>105-300300-
...SOUTHWEST MISSOURI...

CITY           SKY/WX    TMP DP  RH WIND       PRES   REMARKS
SPRINGFIELD    CLEAR     67  58  72 CALM      29.98S
JOPLIN         CLEAR     70  60  70 SE3       29.97R

$$
MOZ032>034-039>042-045>050-055>058-069>072-300300-
...CENTRAL MISSOURI...

CITY           SKY/WX    TMP DP  RH WIND       PRES   REMARKS
COLUMBIA       CLEAR     73  57  57 E3        29.98R
JEFFERSON CITY CLEAR     66  61  84 CALM      29.96R
ROLLA          CLEAR     64  55  72 CALM      29.98R
SEDALIA        CLEAR     73  57  57 SW5       29.97S
WHITEMAN AFB   CLEAR     66  60  80 CALM      29.96S
OSAGE BEACH    CLEAR     66  57  72 CALM      29.97F

$$
MOZ051-052-059>065-300300-
...EAST CENTRAL MISSOURI...

CITY           SKY/WX    TMP DP  RH WIND       PRES   REMARKS
ST LOUIS INTL  CLEAR     74  59  59 CALM      29.97S
SPIRIT OF STL  CLEAR     63  60  90 CALM      29.96R
ST CHARLES     CLEAR     68  63  84 CALM      29.95S

$$
MOZ072>076-082>087-097>100-106>115-300300-
...SOUTH CENTRAL AND SOUTHEAST MISSOURI...

CITY           SKY/WX    TMP DP  RH WIND       PRES   REMARKS
CAPE GIRARDEAU CLEAR     64  59  83 CALM      29.96R
FARMINGTON     CLEAR     64  55  72 CALM      30.01R
POPLAR BLUFF   CLEAR     66  57  72 CALM      29.95R
WEST PLAINS    CLEAR     67  60  78 CALM      30.00R

$$


USA.gov is the U.S. government's official web portal to all federal, state and local government web resources and services.